Location: Rockford
(42.2710°N, 89.0940°W)
Time: 20:22:40
(UTC-05:00)

Daily predictions for brighter satellites

Satellite Brightness Start Highest point End
(mag) Time Altitude Azimuth Time Altitude Azimuth Time Altitude Azimuth
Cosmos 2098 Rocket 2.9 20:46:47 10° NNW 20:49:58 68° W 20:53:48 10° S
H-2A R/B 3.2 20:48:03 10° S 20:51:58 67° W 20:55:56 10° NNW
Cosmos 1242 Rocket 4.2 20:48:29 10° SSW 20:52:01 40° WNW 20:55:34 10° N
Cosmos 1844 Rocket 4.2 20:47:45 10° NW 20:52:49 35° WSW 20:57:51 10° SSW
Lacrosse 5 3.2 20:49:41 10° WSW 20:54:31 44° NW 20:59:23 10° NE
ATLAS CENTAUR R/B 1.9 20:52:10 10° SSW 20:57:08 90° WNW 21:02:13 10° NNE
USA 186 2.9 20:54:34 10° S 20:57:22 39° W 21:00:01 10° NNW
Cosmos 1980 4.3 20:52:07 10° SW 20:57:45 64° WNW 21:03:25 10° NNE
Cosmos 158 Rocket 4.0 20:52:47 10° SSW 20:57:50 85° ESE 21:03:04 10° NNE
SeaSat 1 2.9 20:53:49 10° SE 20:58:32 48° ENE 21:03:18 10° NNW
Cosmos 2228 3.7 20:59:25 10° N 21:03:34 39° ENE 21:07:42 10° SSE
Cosmos 2251 Rocket 3.5 20:59:04 10° SSW 21:04:22 80° ESE 21:09:44 10° NNE
FENGYUN 3A 4.3 21:00:23 10° S 21:05:38 56° W 21:10:57 10° NNW
Cosmos 1892 Rocket 3.6 21:01:32 10° S 21:05:57 75° E 21:10:26 10° NNE
Cosmos 1025 Rocket 3.3 21:01:35 10° SSW 21:05:58 75° W 21:10:22 10° N
BREEZE-M DEB (TANK) 1.7 21:08:29 10° NW 21:11:29 81° SW 21:13:11 14° SE
Atlas Centaur 2 4.1 21:08:33 10° SSW 21:14:13 22° SSE 21:20:16 10° ESE
ALOS 3.7 21:10:54 10° SSW 21:15:15 38° W 21:19:37 10° NNW
YAOGAN 6 4.2 21:13:00 12° ESE 21:15:38 22° ENE 21:18:35 10° NNE
Nimbus 7 Rocket 4.5 21:09:45 10° NNE 21:15:42 63° ESE 21:21:32 10° S
Terra 4.1 21:15:43 10° ENE 21:16:20 10° ENE 21:16:59 10° NE
COSMOS 2455 4.0 21:14:22 10° SSE 21:18:45 21° ESE 21:23:08 10° ENE
Cosmos 2237 Rocket 3.4 21:15:18 10° SW 21:20:41 46° WNW 21:26:08 10° NNE
Meteor 1-15 Rocket 4.3 21:15:29 10° N 21:21:02 67° ENE 21:26:38 10° SSE
ATLAS 3B R/B 4.4 21:18:09 11° SE 21:21:09 14° ESE 21:24:54 10° ENE
SL-8 R/B 4.3 21:16:38 10° W 21:21:26 60° NNW 21:26:14 10° ENE
Envisat 3.0 21:17:04 10° SSE 21:22:06 69° ENE 21:27:10 10° N
Cosmos 1110 Rocket 4.3 21:17:42 10° NNW 21:22:59 71° WSW 21:28:13 10° S
Cosmos 2285 Rocket 4.0 21:16:59 10° NNW 21:23:20 86° ENE 21:29:39 10° SSE
ERS-1 Rocket 3.5 21:18:50 10° S 21:23:47 60° W 21:28:45 10° NNW
Cosmos 1939 Rocket 3.0 21:19:58 10° SSE 21:24:08 89° WSW 21:28:19 10° NNW
Cosmos 2278 Rocket 3.6 21:22:10 10° NW 21:27:18 36° WSW 21:32:25 10° S
Cosmos 1726 Rocket 4.4 21:26:57 10° NNW 21:31:16 50° W 21:35:32 10° SSW
PSLV R/B 3.1 21:30:19 15° SSE 21:32:43 78° ENE 21:35:50 10° N
USA 234 3.3 21:27:51 13° SE 21:33:45 82° NE 21:40:21 10° NW
Cosmos 1464 Rocket 4.1 21:32:07 10° N 21:38:16 78° W 21:44:24 10° S
Cosmos 2058 Rocket 3.8 21:35:29 10° NNW 21:39:45 53° W 21:43:59 10° S
Lacrosse 5 rocket 2.3 21:36:35 10° WSW 21:40:21 49° NW 21:44:21 10° NE
Cosmos 2369 Rocket 3.7 21:37:47 10° N 21:42:23 24° NE 21:46:13 13° E
Cosmos 1666 3.0 21:42:04 10° NNW 21:45:58 70° W 21:49:18 14° S
SL-16 R/B 2.7 21:41:18 10° SW 21:46:53 62° WNW 21:52:30 10° NNE
Abrixas rocket 2.2 21:43:39 10° WNW 21:47:06 82° SSW 21:48:53 26° ESE
Aureole 2 Rocket 2.7 21:45:16 10° SSW 21:49:17 84° WNW 21:52:58 10° NNE
Cosmos 1602 Rocket 3.5 21:45:16 10° S 21:49:44 81° E 21:54:14 10° N
Okean 2 4.4 21:46:03 10° SSW 21:50:06 48° WNW 21:54:10 10° N
ARGOS 3.5 21:48:12 20° SE 21:51:49 51° ENE 21:57:04 10° N
H-2A R/B 3.3 21:50:29 17° ESE 21:53:05 25° ENE 21:57:06 10° NNE
Cosmos 2034 Rocket 4.2 21:49:07 10° N 21:55:30 77° W 22:01:30 12° S
UNK 4.2 21:51:43 10° NNE 21:57:06 88° ESE 22:02:45 10° SSW
Cosmos 1634 Rocket 4.5 21:52:50 10° N 21:58:41 43° ENE 22:02:13 23° SE
Cosmos 1238 4.4 21:58:10 31° SSE 21:59:25 53° E 22:02:23 10° NNE
Cosmos 1812 Rocket 3.5 21:55:15 10° N 21:59:39 74° E 22:02:13 24° SSE
Timation 1 Rocket 4.4 21:55:09 10° NNW 22:01:12 83° WSW 22:05:16 22° SSE
SPOT 1/Viking Rocket 3.5 21:57:45 21° SSE 22:01:15 77° ENE 22:06:25 10° N
Cosmos 1461 2.8 21:57:17 10° NNW 22:01:38 86° NE 22:03:39 29° SE
USA 245 4.3 21:57:48 19° SSE 22:02:27 80° ENE 22:07:56 10° N
PSLV R/B 4.5 22:05:37 10° SW 22:07:53 27° S 22:07:53 27° S
Cosmos 1346 Rocket 3.9 22:10:07 25° E 22:10:21 25° E 22:13:35 10° NE
H-2A R/B 4.4 22:10:29 10° SW 22:13:27 19° W 22:16:29 10° NW
DEBRIS 3.3 22:10:56 10° WNW 22:14:37 29° SW 22:15:03 27° SSW
CZ-4 R/B 3.9 22:09:56 10° NNE 22:14:55 75° ESE 22:18:29 19° S
Cosmos 1515 3.7 22:13:47 34° SSE 22:15:19 66° E 22:19:10 10° NNE
Cosmos 1603 3.6 22:09:52 10° SSW 22:15:30 89° ESE 22:21:08 10° NNE
Geosat 4.0 22:11:00 10° NNE 22:16:00 62° ESE 22:19:56 16° SSW
Milstar 3 Cent rocket 4.2 22:18:28 10° SW 22:18:57 10° SSW 22:19:24 10° SSW
SPOT 5 4.1 22:17:32 12° SSW 22:21:10 32° W 22:25:06 10° NNW
SeaSat 1 4.2 22:32:57 13° SSW 22:36:15 23° WSW 22:40:11 10° NW
Landsat 7 3.7 22:35:43 39° SSE 22:37:30 83° ENE 22:42:16 10° NNW
CZ-4B R/B 4.5 22:33:40 10° N 22:38:29 46° WNW 22:43:23 10° SW
Cosmos 1953 Rocket 3.5 22:38:28 47° SSE 22:39:33 65° E 22:43:57 10° NNE
Cosmos 1943 3.2 22:39:28 31° S 22:42:08 62° ESE 22:47:45 10° NNE
DELTA 2 DEB (DPAF) 4.3 22:40:32 38° S 22:42:10 71° WSW 22:46:40 10° NNW
Cosmos 2346 Rocket 4.4 22:41:46 24° S 22:45:43 85° W 22:51:55 10° N
Cosmos 1766 3.5 22:45:54 10° N 22:49:49 53° E 22:50:05 51° E
Terra 1.7 22:51:59 49° SSE 22:53:17 84° ENE 22:58:04 10° NNW
Spot 2 4.3 22:48:56 10° NNE 22:53:39 72° ESE 22:54:59 47° S
CZ-4C R/B 4.1 22:53:47 36° SSW 22:55:05 49° W 22:59:09 10° NNW
Cosmos 1943 Rocket 3.1 22:53:57 10° N 22:59:03 36° ENE 23:01:00 28° E
Atlas Centaur 2 3.6 22:55:45 10° SW 23:03:01 34° S 23:03:19 34° SSE
COSMOS 2455 3.2 22:58:12 10° SW 23:04:09 64° WNW 23:10:08 10° NNE
IGS 5A 3.4 23:06:01 66° SSW 23:06:30 76° WSW 23:10:41 10° NNW
Cosmos 407 Rocket 3.4 23:05:15 48° S 23:06:41 76° ESE 23:11:56 10° NNE
Cosmos-2242 3.2 23:04:06 10° N 23:08:28 57° E 23:08:43 56° E
ATLAS 3B R/B 2.8 23:05:14 21° SSW 23:10:46 74° ESE 23:18:17 10° NE
Cosmos 1900 4.5 23:12:02 54° ESE 23:12:10 54° ESE 23:17:11 10° NE
Cosmos 1758 Rocket 3.8 23:13:15 49° SW 23:14:13 65° W 23:18:35 10° N
USA 234 4.4 23:15:11 24° SSW 23:17:10 28° SW 23:22:41 10° WNW
Cosmos 1953 2.6 23:13:23 10° N 23:17:03 54° ENE 23:17:03 54° ENE
CARTOSAT-1 4.1 23:17:46 43° SW 23:18:26 47° W 23:22:37 10° NNW
ALOS 2 4.4 23:21:10 19° ENE 23:21:39 19° ENE 23:24:45 10° NNE
CZ-4B R/B 4.0 23:23:54 14° ENE 23:23:54 14° ENE 23:25:41 10° NNE
Cosmos 1954 Rocket 4.0 23:24:13 60° SE 23:24:44 63° ESE 23:29:59 10° NNE
Lacrosse 4 Rocket 1.4 23:26:58 72° NNE 23:26:58 72° NNE 23:30:41 10° NNE
Cosmos 2369 Rocket 2.5 23:21:13 10° NNW 23:26:45 55° WSW 23:28:01 45° SSW
Cosmos 1805 3.7 23:23:43 10° N 23:27:10 55° NE 23:27:10 55° NE
Cosmos 1092 Rocket 4.4 23:28:12 43° ESE 23:29:23 48° E 23:35:24 10° NNE
H-2A R/B 2.8 23:31:07 34° SW 23:32:16 39° W 23:36:58 10° NNW
USA 238 DEB 3.9 23:39:28 47° SE 23:40:24 50° ESE 23:47:11 10° NE
USA 238 3.9 23:39:36 47° SE 23:40:29 50° ESE 23:47:15 10° NE
Cosmos 1842 Rocket 3.6 23:39:14 10° N 23:43:20 67° NE 23:43:20 67° NE
Nadezhda 4 Rocket 3.9 23:42:14 54° S 23:43:49 84° E 23:50:12 10° N
COSMOS 2406 3.4 23:44:13 51° ESE 23:44:18 52° ESE 23:49:50 10° NNE
Cosmos 2263 4.5 23:40:26 10° NNW 23:45:54 53° WSW 23:46:42 49° SW
Cosmos 1570 Rocket 4.0 23:45:40 10° NNW 23:51:02 69° ENE 23:51:37 63° ESE
ISS -0.5 23:55:47 13° NE 23:55:47 13° NE 23:56:14 10° NE
